Regional Weather Roundup
Issued by NWS Nashville, TN

Home | Current Version | Previous Version | Text Only | Print | Product List | Glossary On
Versions: 1 2 3 4 5 6 7 8 9 10 11 12 13 14 15 16 17 18 19 20 21 22 23 24 25 26 27
000
ASUS44 KOHX 170610
RWROHX
MIDDLE TENNESSEE HOURLY WEATHER ROUNDUP
NATIONAL WEATHER SERVICE NASHVILLE TN
1200 AM CST SUN DEC 17 2017

NOTE: "FAIR" INDICATES FEW OR NO CLOUDS BELOW 12,000 FEET WITH
NO SIGNIFICANT WEATHER AND/OR OBSTRUCTIONS TO VISIBILITY.

* THESE REPORTS ARE NOT UNDER NWS QUALITY CONTROL AND MAY NOT
  REPORT WEATHER SUCH AS PRECIPITATION AND FOG.


TNZ005>011-023>034-057-059-062>066-078-080-170700
...NORTHERN MIDDLE TENNESSEE...

CITY           SKY/WX    TMP DP  RH WIND       PRES   REMARKS
CLARKSVILLE    CLOUDY    39  28  64 SE6       30.20F WCI  35
CROSSVILLE     CLOUDY    35  26  69 CALM      30.23F
GALLATIN       CLEAR     41  30  65 CALM      30.24F
NASHVILLE      CLOUDY    41  30  65 SE3       30.22F
PORTLAND       CLEAR     41  30  65 S7        30.20F
SMYRNA         CLOUDY    39  30  70 SE3       30.24F
SPARTA         CLEAR     34  28  80 S3        30.22F
SPRINGFIELD    CLEAR     43  30  61 S5        30.18F
WEST NASHVILLE CLEAR     41  30  65 CALM      30.20S
$$
TNZ056-058-060-061-075>077-079-093>097-170700
...SOUTHERN MIDDLE TENNESSEE...

CITY           SKY/WX    TMP DP  RH WIND       PRES   REMARKS
COLUMBIA       CLEAR     39  28  65 CALM      30.20S
FAYETTEVILLE   CLEAR     37  28  70 S8        30.22S WCI  31
MCMINNVILLE    CLEAR     30  27  86 CALM      30.23F
PULASKI        CLEAR     32  30  93 CALM      30.22F
SHELBYVILLE    CLEAR     39  28  65 SE5       30.22F
TULLAHOMA      CLEAR     34  28  80 CALM      30.22F
WINCHESTER     CLEAR     34  27  75 SE5       30.24F WCI  30
$$


...KEY TO REMARKS...
VSB - VISIBILITY IN MILES
WCI - WIND CHILL INDEX
HX  - HEAT INDEX





USA.gov is the U.S. government's official web portal to all federal, state and local government web resources and services.